Overview Statistics Trail Chart Weather Telemetry Raw packets
 

This is the latest recevied weather packets stored in our database for station/object EA5EN-10. If no packets are shown the sender has not sent any weather packets the latest 10 day(s).

<< 20 21 22 23 24 25 26 >>
Time Temp. Humidity Pressure Rain* Wind** Luminosity Snow
1787932411 28.89° C 41% 1030 hPa - - - -
1787931353 28.89° C 42% 1030.4 hPa - - - -
1787930295 28.89° C 42% 1030.7 hPa - - - -
1787929237 28.89° C 43% 1031 hPa - - - -
1787928179 28.89° C 42% 1031.3 hPa - - - -
1787927122 28.89° C 42% 1031.4 hPa - - - -
1787925006 28.89° C 42% 1031.5 hPa - - - -
1787923948 28.89° C 43% 1031.4 hPa - - - -
1787922890 28.89° C 43% 1031.3 hPa - - - -
1787921839 28.89° C 43% 1032.5 hPa - - - -
1787920951 28.89° C 43% 1031.9 hPa - - - -
1787919724 29.44° C 42% 1032.6 hPa - - - -
1787918660 29.44° C 39% 1031.7 hPa - - - -
1787917783 29.44° C 40% 1032.5 hPa - - - -
1787916550 29.44° C 41% 1032 hPa - - - -
1787915487 29.44° C 40% 1032.9 hPa - - - -
1787914434 28.89° C 35% 1031.7 hPa - - - -
1787913552 29.44° C 34% 1032 hPa - - - -
1787912319 29.44° C 34% 1032 hPa - - - -
1787911261 29.44° C 34% 1031.8 hPa - - - -
1787909139 29.44° C 36% 1032.7 hPa - - - -
1787907029 30° C 38% 1031.4 hPa - - - -
1787905972 30° C 38% 1031.6 hPa - - - -
1787904914 30° C 38% 1031.7 hPa - - - -
1787903852 30° C 38% 1031.4 hPa - - - -

* Rain since midnight (hover to see other rain measurements)
** Current wind speed in m/s (hover to see current wind gust speed)